Weather History for Sioux Falls, SD

Change the Weather History Date:

Tuesday, September 17, 2013

  Actual Average Record
Temperature  
Mean Temperature 61 °F 61 °F  
Max Temperature 66 °F 73 °F 103 °F (1895)
Min Temperature 56 °F 49 °F 24 °F (1900)
Degree Days  
Heating Degree Days 4 6  
Month to date heating degree days 30 63  
Since 1 July heating degree days 64 94  
Cooling Degree Days 0 2  
Month to date cooling degree days 94 50  
Year to date cooling degree days 748 675  
Growing Degree Days 10 (Base 50)    
Moisture  
Dew Point 57 °F    
Average Humidity 90    
Maximum Humidity 100    
Minimum Humidity 80    
Precipitation  
Precipitation 0.01 in 0.09 in 1.60 in (1907)
Month to date precipitation 0.22 1.62  
Year to date precipitation 20.64 21.01  
Snow  
Snow 0.00 in 0.00 in 0.00 in ()
Month to date snowfall 0.0 0.0  
Since 1 July snowfall 0.0 0.0  
Since 1 September snowfall 0.0 0.0  
Snow Depth 0.00 in    
Sea Level Pressure  
Sea Level Pressure 29.99 in    
Wind  
Wind Speed 13 mph (SSE)    
Max Wind Speed 18 mph    
Max Gust Speed 25 mph    
Visibility 7 miles    
Events Rain    
T = Trace of Precipitation, MM = Missing Value Source: NWS Daily Summary

Daily Weather History Graph

Daily Weather History Graph

Search for Another Location

Airport:

Trip Planner

Search our weather history database for the weather conditions in past years. The results will help you decide how hot, cold, wet, or windy it might be!

Date:

Astronomy

Sep. 17, 2013 Rise Set
Actual Time 7:08 AM CDT 7:33 PM CDT
Civil Twilight 6:40 AM CDT 8:01 PM CDT
Nautical Twilight 6:06 AM CDT 8:35 PM CDT
Astronomical Twilight 5:31 AM CDT 9:10 PM CDT
Moon 6:22 PM CDT (9/17) 5:02 AM CDT (9/17)
Length of Visible Light 13h 21m
Length of Day
12h 24m
Waxing Gibbous, 96% of the Moon is Illuminated
Sep 17
Waxing Gibbous
Sep 19
Full
Sep 26
Last Quarter
Oct 4
New
Oct 11
First Quarter

Hourly Weather History & Observations

Time (CDT) Temp. Dew Point Humidity Pressure Visibility Wind Dir Wind Speed Gust Speed Precip Events Conditions
12:56 AM 55.9 °F 50.0 °F 80% 30.17 in 10.0 mi SSE 11.5 mph - N/A   Clear
1:56 AM 57.0 °F 51.1 °F 81% 30.17 in 10.0 mi SSE 12.7 mph - N/A   Overcast
2:56 AM 57.0 °F 51.1 °F 81% 30.15 in 10.0 mi SSE 12.7 mph - N/A   Overcast
3:11 AM 57.2 °F 51.8 °F 82% 30.15 in 10.0 mi SSE 15.0 mph 20.7 mph N/A   Overcast
3:56 AM 57.0 °F 51.1 °F 81% 30.13 in 10.0 mi South 10.4 mph 17.3 mph N/A   Overcast
4:21 AM 57.2 °F 51.8 °F 82% 30.12 in 10.0 mi SSE 11.5 mph - N/A   Overcast
4:56 AM 57.0 °F 52.0 °F 83% 30.10 in 10.0 mi South 9.2 mph - N/A   Overcast
5:56 AM 57.0 °F 53.1 °F 87% 30.09 in 10.0 mi SSE 11.5 mph - N/A   Overcast
6:26 AM 57.2 °F 53.6 °F 88% 30.09 in 10.0 mi SSE 13.8 mph - N/A   Overcast
6:56 AM 57.0 °F 54.0 °F 89% 30.08 in 10.0 mi SSE 11.5 mph - N/A   Overcast
7:56 AM 57.0 °F 54.0 °F 89% 30.07 in 10.0 mi SSE 11.5 mph - 0.00 in   Overcast
8:56 AM 57.0 °F 54.0 °F 89% 30.06 in 10.0 mi SSE 15.0 mph 20.7 mph N/A   Overcast
9:56 AM 57.9 °F 55.0 °F 90% 30.05 in 10.0 mi SSE 17.3 mph 20.7 mph N/A   Overcast
10:56 AM 59.0 °F 55.9 °F 90% 30.04 in 10.0 mi South 15.0 mph - N/A   Overcast
11:56 AM 61.0 °F 55.9 °F 83% 30.02 in 10.0 mi SSE 17.3 mph 24.2 mph N/A   Overcast
12:39 PM 60.8 °F 57.2 °F 88% 30.00 in 10.0 mi SSE 13.8 mph 19.6 mph N/A   Overcast
12:56 PM 61.0 °F 57.0 °F 87% 29.99 in 10.0 mi South 16.1 mph - N/A   Overcast
1:56 PM 62.1 °F 57.0 °F 84% 29.97 in 9.0 mi SSE 9.2 mph - N/A   Overcast
2:56 PM 62.1 °F 57.9 °F 86% 29.94 in 6.0 mi SSE 11.5 mph - 0.00 in   Light Drizzle
3:24 PM 62.6 °F 59.0 °F 88% 29.92 in 2.5 mi SSE 11.5 mph - 0.00 in   Light Drizzle
3:56 PM 62.1 °F 59.0 °F 90% 29.91 in 2.0 mi SSE 15.0 mph 18.4 mph 0.00 in   Light Drizzle
4:31 PM 62.6 °F 60.8 °F 94% 29.90 in 5.0 mi SSE 11.5 mph 18.4 mph 0.00 in   Overcast
4:56 PM 63.0 °F 60.1 °F 90% 29.90 in 5.0 mi SSE 11.5 mph - 0.00 in   Overcast
5:56 PM 63.0 °F 60.1 °F 90% 29.89 in 6.0 mi SSE 12.7 mph 21.9 mph N/A   Overcast
6:56 PM 63.0 °F 61.0 °F 93% 29.88 in 3.0 mi SSE 10.4 mph - 0.00 in   Light Drizzle
7:01 PM 62.6 °F 60.8 °F 94% 29.87 in 2.5 mi SSE 13.8 mph - 0.00 in   Light Drizzle
7:14 PM 62.6 °F 62.6 °F 100% 29.87 in 1.8 mi SSE 9.2 mph - 0.00 in   Light Drizzle
7:56 PM 63.0 °F 62.1 °F 97% 29.86 in 2.0 mi SSE 10.4 mph - 0.00 in   Light Drizzle
8:56 PM 64.0 °F 63.0 °F 96% 29.86 in 2.0 mi SSE 11.5 mph - 0.01 in Rain Light Rain
9:29 PM 64.4 °F 62.6 °F 94% 29.86 in 3.0 mi SSE 10.4 mph - 0.00 in   Light Drizzle
9:56 PM 64.9 °F 64.0 °F 97% 29.85 in 3.0 mi SSE 12.7 mph - 0.00 in   Overcast
10:56 PM 64.9 °F 64.0 °F 97% 29.85 in 5.0 mi SSE 12.7 mph - N/A   Overcast
11:56 PM 66.0 °F 64.0 °F 93% 29.83 in 6.0 mi SSE 12.7 mph - N/A   Overcast